User: anonymous   Login
Location: Unspecified
(0.0000°N, 0.0000°E)
Time: 13:50:15
(UTC+01:00)
Language:

Cosmos 1758 - Orbit

View from above orbital plane
View from above orbital plane
View from above satellite
View from above satellite

Ground track
Ground track

The orbit data is extracted from the following two-line orbital elements,

1 16791U 86046A   14355.98016256  .00005192  00000-0  39277-3 0  2107
2 16791 082.4697 195.8516 0016509 299.0777 060.8794 15.02041009549205
Epoch (UTC): 21 December 2014 23:31:26
Eccentricity: 0.0016509
inclination: 82.4697°
perigee height: 549 km
apogee height: 572 km
right ascension of ascending node: 195.8516°
argument of perigee: 299.0777°
revolutions per day: 15.02041009
mean anomaly at epoch: 60.8794°
orbit number at epoch: 54920

The dashed part of the orbit path shows where the satellite is in the earth's shadow,  

DLR